TimeEDT,TemperatureF,Dew PointF,Humidity,Sea Level PressureIn,VisibilityMPH,Wind Direction,Wind SpeedMPH,Gust SpeedMPH,PrecipitationIn,Events,Conditions,WindDirDegrees,DateUTC
12:53 AM,73.9,71.1,91,30.01,10.0,Calm,Calm,-,N/A,,Clear,0,2012-09-21 04:53:00
1:53 AM,75.0,71.1,87,29.99,10.0,Calm,Calm,-,N/A,,Clear,0,2012-09-21 05:53:00
2:53 AM,73.9,72.0,93,29.99,10.0,Calm,Calm,-,N/A,,Clear,0,2012-09-21 06:53:00
3:53 AM,73.9,72.0,93,29.99,10.0,Calm,Calm,-,N/A,,Clear,0,2012-09-21 07:53:00
4:53 AM,73.9,70.0,87,29.96,10.0,ENE,3.5,-,N/A,,Clear,60,2012-09-21 08:53:00
5:53 AM,73.9,70.0,87,29.97,10.0,NNE,3.5,-,N/A,,Clear,30,2012-09-21 09:53:00
6:53 AM,73.9,71.1,91,29.97,10.0,ENE,5.8,-,N/A,,Clear,60,2012-09-21 10:53:00
7:53 AM,73.9,71.1,91,29.98,10.0,East,3.5,-,N/A,,Partly Cloudy,80,2012-09-21 11:53:00
8:53 AM,75.9,72.0,87,29.99,10.0,East,3.5,-,N/A,,Clear,80,2012-09-21 12:53:00
9:53 AM,77.0,71.1,82,29.99,10.0,ENE,6.9,-,N/A,,Scattered Clouds,60,2012-09-21 13:53:00
10:53 AM,78.1,72.0,81,29.99,10.0,NE,5.8,-,N/A,,Overcast,50,2012-09-21 14:53:00
11:53 AM,79.0,73.0,82,30.00,10.0,East,4.6,-,N/A,,Overcast,80,2012-09-21 15:53:00
12:53 PM,82.0,73.9,76,29.99,10.0,ENE,4.6,-,N/A,,Mostly Cloudy,60,2012-09-21 16:53:00
1:53 PM,84.9,75.0,72,29.96,10.0,Variable,4.6,-,N/A,,Clear,0,2012-09-21 17:53:00
2:33 PM,86.0,73.4,66,29.94,10.0,ENE,5.8,-,N/A,,Mostly Cloudy,70,2012-09-21 18:33:00
2:53 PM,86.0,73.0,65,29.94,10.0,ENE,6.9,-,N/A,,Mostly Cloudy,60,2012-09-21 18:53:00
3:53 PM,87.1,73.0,63,29.90,10.0,NNE,4.6,-,N/A,,Mostly Cloudy,30,2012-09-21 19:53:00
4:10 PM,86.0,73.4,66,29.89,10.0,NNW,9.2,-,N/A,Thunderstorm,Mostly Cloudy,330,2012-09-21 20:10:00
4:31 PM,80.6,71.6,74,29.91,10.0,North,11.5,-,N/A,Thunderstorm,Thunderstorm,360,2012-09-21 20:31:00
4:51 PM,78.8,69.8,74,29.93,10.0,NE,10.4,-,0.00,Rain-Thunderstorm,Light Thunderstorms and Rain,50,2012-09-21 20:51:00
4:53 PM,78.1,70.0,76,29.94,10.0,ENE,8.1,-,0.00,Rain-Thunderstorm,Light Thunderstorms and Rain,70,2012-09-21 20:53:00
5:03 PM,75.2,69.8,83,29.93,1.8,NW,5.8,-,0.03,Rain-Thunderstorm,Heavy Thunderstorms and Rain,320,2012-09-21 21:03:00
5:12 PM,73.4,69.8,88,29.93,1.2,NW,11.5,-,0.12,Rain,Heavy Rain,310,2012-09-21 21:12:00
5:25 PM,75.2,71.6,89,29.92,2.5,NW,9.2,-,0.18,Rain,Rain,320,2012-09-21 21:25:00
5:40 PM,75.2,73.4,94,29.92,5.0,NNW,9.2,-,0.22,Rain,Light Rain,330,2012-09-21 21:40:00
5:53 PM,75.9,73.0,91,29.93,10.0,North,5.8,-,0.22,Rain,Light Rain,360,2012-09-21 21:53:00
6:16 PM,77.0,73.4,89,29.94,10.0,East,3.5,-,0.00,Thunderstorm,Mostly Cloudy,80,2012-09-21 22:16:00
6:31 PM,75.2,71.6,89,29.95,8.0,SSE,6.9,-,0.01,Rain,Light Rain,160,2012-09-21 22:31:00
6:53 PM,75.9,73.0,91,29.96,4.0,Calm,Calm,-,0.03,Rain,Rain,0,2012-09-21 22:53:00
7:53 PM,75.9,73.0,91,29.99,6.0,SSE,6.9,-,0.16,Rain,Light Rain,160,2012-09-21 23:53:00
8:53 PM,73.9,71.1,91,29.99,10.0,ESE,6.9,-,0.02,Rain,Light Rain,120,2012-09-22 00:53:00
9:53 PM,73.9,71.1,91,29.99,10.0,Calm,Calm,-,0.00,,Scattered Clouds,0,2012-09-22 01:53:00
10:53 PM,73.9,71.1,91,30.01,10.0,NNE,3.5,-,0.01,Rain,Light Rain,20,2012-09-22 02:53:00
11:53 PM,73.9,71.1,91,30.00,10.0,NNE,6.9,-,0.00,,Partly Cloudy,30,2012-09-22 03:53:00